Regional Weather Roundup
Issued by NWS

Home | Current Version | Previous Version | Graphics & Text | Print | Product List | Glossary On
Versions: 1 2 3 4 5 6 7 8 9 10 11 12 13 14 15 16 17 18 19 20 21 22 23 24 25 26 27 28 29 30 31 32 33 34 35 36 37 38 39 40 41 42 43 44 45 46 47 48 49 50
000
ASUS43 KMPX 280601
RWRMN
WEATHER ROUNDUP FOR MINNESOTA
NATIONAL WEATHER SERVICE TWIN CITIES/CHANHASSEN MN
100 AM CDT SAT MAY 28 2016


NOTE: "FAIR" INDICATES FEW OR NO CLOUDS BELOW 12,000 FEET WITH NO
SIGNIFICANT WEATHER AND/OR OBSTRUCTIONS TO VISIBILITY. N/A MEANS
CURRENT SKY AND/OR WEATHER CONDITIONS ARE NOT AVAILABLE.

MNZ060>063-068>070-280700-
   Twin Cities Metro

CITY           SKY/WX    TMP DP  RH WIND       PRES   REMARKS
TWIN CITIES    CLOUDY    63  60  90 NW7       29.76F
6HR MIN TEMP:  63; 6HR MAX TEMP:  67;

ST PAUL        CLOUDY    64  61  90 W7        29.76F
CRYSTAL        CLOUDY    61  59  93 NW8       29.76F FOG
BLAINE         CLOUDY    63  63 100 NW3       29.77F FOG
EDEN PRAIRIE   CLOUDY    62  59  90 N3        29.76S
6HR MIN TEMP:  61; 6HR MAX TEMP:  68;

SOUTH ST PAUL  CLOUDY    64  61  91 W5        29.76F
LAKE ELMO      CLOUDY    63  63 100 W5        29.78S
$$
MNZ001>005-007-008-013>017-022>024-027-028-280700-
   Northwest Minnesota

CITY           SKY/WX    TMP DP  RH WIND       PRES   REMARKS
BEMIDJI        CLOUDY    54  53  95 E6        29.84S
HALLOCK        CLOUDY    61  57  88 N5        29.82R
ROSEAU         CLEAR     61  55  82 E8        29.85S
WARROAD        CLEAR     57  54  88 E7        29.86F
THIEF RVR FALL CLOUDY    59  54  82 E10       29.83F
CROOKSTON      CLOUDY    61  57  88 E5        29.81S
FOSSTON        CLOUDY    57  55  94 E5        29.83F
DETROIT LAKES  PTCLDY    59  54  82 E3        29.82F
MOORHEAD       CLOUDY    63  57  82 SE3       29.81R
PARK RAPIDS    CLOUDY    59  54  83 NE5       29.82S
MAHNOMEN       CLOUDY    59  56  88 E5        29.82S
$$
MNZ006-009>011-018-025>026-280700-
   North Central Minnesota

CITY           SKY/WX    TMP DP  RH WIND       PRES   REMARKS
BAUDETTE       CLOUDY    58  53  84 CALM      29.86S
FLAG ISLAND    CLEAR     61  55  82 E6        29.86S
INTL FALLS     CLOUDY    61  54  77 NE3       29.85S
6HR MIN TEMP:  61; 6HR MAX TEMP:  68;

WASKISH        CLOUDY    59  55  88 CALM      29.85F
BIG FORK       CLOUDY    59  52  77 NE5       29.85S
LONGVILLE      CLOUDY    57  55  94 NE3       29.82S
CRANE LAKE     CLOUDY    55  54  94 CALM      29.87F
ORR            CLOUDY    57  52  82 E3        29.83S
COOK           DRIZZLE   55  54  94 NE6       29.85S
WALKER         CLOUDY    58  55  91 NE5       29.83R
$$
MNZ012-019>021-037-280700-
   Northeast Minnesota

CITY           SKY/WX    TMP DP  RH WIND       PRES   REMARKS
DULUTH         DRZL/FOG  54  53  97 E12       29.79F VSB 1
6HR MIN TEMP:  51; 6HR MAX TEMP:  57; 6HR PCP:  0.04;

ELY            LGT RAIN  55  54  94 NE5       29.83F
HIBBING        LGT RAIN  55  52  89 NE6       29.82S FOG
EVELETH        LGT RAIN  57  54  88 N8        29.83S
DULUTH HARBOR  CLOUDY    46  46 100 E17       29.81R
TWO HARBORS    DRIZZLE   55  52  88 E15       29.77F
SILVER BAY     LGT RAIN  57  55  94 NE17G28   29.78F
GRAND MARAIS     N/A     60  56  86 NE12G22   29.80F
G MARAIS ARPRT DRIZZLE   54  50  87 NE13      29.85F
$$
MNZ029>031-032-039>041-046>048-054>057-064-280700-
   West Central Minnesota

CITY           SKY/WX    TMP DP  RH WIND       PRES   REMARKS
FERGUS FALLS   MOCLDY    59  55  88 CALM      29.77F
WHEATON        MOCLDY    61  57  88 SE3       29.81S
MORRIS         CLOUDY    61  57  88 SE3       29.79R
ALEXANDRIA     CLOUDY    59  56  89 E3        29.80F
ELBOW LAKE     FAIR      58  56  94 E5        29.81R
WADENA         CLOUDY    54  54 100 NE6       29.80F
GLENWOOD       CLOUDY    57  55  94 CALM      29.80F
APPLETON       CLOUDY    63  57  82 E5        29.78S
ORTONVILLE     CLOUDY    63  57  82 SE6       29.78F
MADISON        CLOUDY    63  57  82 E9        29.78S
WILLMAR        CLOUDY    63  59  88 E5        29.79F
$$
MNZ033>034-036-042>043-049>051-058-059-280700-
   Central Minnesota

CITY           SKY/WX    TMP DP  RH WIND       PRES   REMARKS
ST CLOUD       CLOUDY    57  56  96 CALM      29.79S FOG
6HR MIN TEMP:  57; 6HR MAX TEMP:  61;

SAUK CENTRE    CLOUDY    58  56  92 CALM      29.79F
PAYNESVILLE    CLOUDY    60  59  97 SE5       29.80S
AITKIN         MIX PCPN  57  52  82 N5        29.80S
PINE RIVER     CLOUDY    57  55  94 N3        29.85S
BRAINERD       CLOUDY    56  55  97 NE6       29.81R
STAPLES        CLOUDY    55  55 100 NE3       29.81F
LONG PRAIRIE   CLOUDY    57  55  94 CALM      29.80F
LITTLE FALLS   CLOUDY    55  54  94 CALM      29.80S
LITCHFIELD     CLOUDY    61  61 100 NE5       29.79F FOG
BUFFALO        CLOUDY    59  57  92 CALM      29.79F FOG
MAPLE LAKE     CLOUDY    59  59  99 CALM      29.80S FOG
HUTCHINSON     CLOUDY    62  60  95 N3        29.79F
$$
MNZ037-044-045-052-053-280700-
   East Central Minnesota

CITY           SKY/WX    TMP DP  RH WIND       PRES   REMARKS
PRINCETON      LGT RAIN  57  55  94 NW3       29.78F
MORA           CLOUDY    54  52  94 CALM      29.81R
CAMBRIDGE      CLOUDY    59  52  77 NW3       29.76F
RUSH CITY      CLOUDY    57  55  92 N3        29.78S
MOOSE LAKE     CLOUDY    50  48  93 CALM      29.79R FOG
HINCKLEY       CLOUDY    55  54  94 N3        29.79R
CLOQUET        CLOUDY    54  52  94 E10G16    29.79S FOG
MCGREGOR       CLOUDY    55  54  94 CALM      29.81S
$$
MNZ071>073-080-081-089-090-097-098-280700-
   Southwest Minnesota

CITY           SKY/WX    TMP DP  RH WIND       PRES   REMARKS
MONTEVIDEO     CLOUDY    61  57  88 E5        29.79F
GRANITE FALLS  CLOUDY    63  60  90 NE7       29.79S
CANBY          CLOUDY    65  62  89 NE8       29.78F
MARSHALL       CLOUDY    61  59  93 E9        29.77S
REDWOOD FALLS  CLOUDY    62  59  90 NE5       29.77S
OLIVIA         CLOUDY    59  55  88 NE7       29.77F
PIPESTONE      MOCLDY    63  57  82 NE5       29.76S
WINDOM         CLOUDY    63  61  94 E3        29.76S
WORTHINGTON    PTCLDY    63  60  90 E9        29.75F
JACKSON        CLOUDY    64  59  82 E8        29.76F
TRACY          PTCLDY    61  59  94 NE5       29.77R
SLAYTON        PTCLDY    63  59  87 E6        29.77S
$$
MNZ065>067-074>077-082>085-091>093-280700-
   South Central Minnesota

CITY           SKY/WX    TMP DP  RH WIND       PRES   REMARKS
MANKATO        CLOUDY    63  57  82 N6        29.76F
NEW ULM        MOCLDY    61  61 100 NE14      29.76F FOG
ST JAMES       CLOUDY    59  55  88 CALM      29.76F
FAIRMONT       CLOUDY    64  61  88 CALM      29.75F
GLENCOE        CLOUDY    62  61  98 N5        29.77F
FARIBAULT      CLOUDY    61  61 100 CALM      29.76F
OWATONNA       CLOUDY    61  59  94 CALM      29.76F FOG
WASECA         CLOUDY    63  61  94 CALM      29.77S
ALBERT LEA     CLOUDY    63  63 100 CALM      29.76F
$$
MNZ078>079-086>088-094>096-280700-
   Southeast Minnesota

CITY           SKY/WX    TMP DP  RH WIND       PRES   REMARKS
ROCHESTER      CLOUDY    62  62 100 CALM      29.78R FOG
6HR MIN TEMP:  61; 6HR MAX TEMP:  70; 6HR PCP: TRACE;

RED WING       FOG       63  61  94 CALM      29.75S VSB 1/2
STANTON        CLOUDY    60  59  94 CALM      29.75S FOG
DODGE CENTER   CLOUDY    61  59  94 CALM      29.77F FOG
WINONA         CLOUDY    66  64  94 CALM      29.75S
AUSTIN         CLOUDY    61  59  94 CALM      29.76F FOG
PRESTON        MOCLDY    62  60  94 S3        29.78R FOG
$$
ABBREVIATIONS USED IN REMARKS
   TC - TEMPERATURES IN CELSIUS
  WCI - WIND CHILL INDEX
   HX - HEAT INDEX
  VSB - VISIBILITY
$$




USA.gov is the U.S. government's official web portal to all federal, state and local government web resources and services.